Regional Weather Roundup
Issued by NWS

Home | Current Version | Previous Version | Text Only | Print | Product List | Glossary On
Versions: 1 2 3 4 5 6 7 8 9 10 11 12 13 14 15 16 17 18 19 20 21 22 23 24 25 26 27 28 29 30 31 32 33 34 35 36 37 38 39 40 41 42 43 44 45 46 47 48 49 50
000
ASUS46 KPQR 210510
RWROR

OREGON REGIONAL WEATHER ROUNDUP
NATIONAL WEATHER SERVICE PORTLAND OR
900 PM PST FRI JAN 20 2017

NOTE: "FAIR" INDICATES FEW OR NO CLOUDS BELOW 12,000 FEET WITH
NO SIGNIFICANT WEATHER AND/OR OBSTRUCTIONS TO VISIBILITY.

ORZ001>013-210600-
NORTHWEST OREGON


CITY           SKY/WX    TMP DP  RH WIND       PRES   REMARKS
ASTORIA        CLOUDY    45  38  76 E6        29.13R
NEWPORT        PTCLDY    43  41  93 SE5       29.16R
PORTLAND       LGT RAIN  40  40 100 SE8       29.20R WCI  34
VANCOUVER WA   LGT RAIN  40  36  86 VRB3      29.20R FOG
SCAPPOOSE      MOCLDY    36  36 100 W3        29.18R FOG
HILLSBORO      CLOUDY    40  38  93 E3        29.17R
AURORA         CLOUDY    43  41  93 CALM      29.18R
MCMINNVILLE    CLOUDY    43  40  89 CALM      29.17R
SALEM          CLOUDY    43  40  89 S5        29.15R
CORVALLIS        N/A     41  37  87 CALM      29.16R
EUGENE         CLOUDY    43  41  93 CALM      29.16R
$$

ORZ021-028-210600-
SOUTHWEST OREGON


CITY           SKY/WX    TMP DP  RH WIND       PRES   REMARKS
NORTH BEND     MOCLDY    45  41  87 SE9       29.17R
BROOKINGS      RAIN      42  41  96 SE8       29.22R FOG
ROSEBURG       PTCLDY    41  38  89 CALM      29.17R
SEXTON SUMMIT  FOG       31  31 100 S9        29.12R VSB 1/4 WCI  23
MEDFORD        CLOUDY    43  38  82 NW3       29.18R
$$

ORZ014>016-041-210600-
COLUMBIA GORGE


CITY           SKY/WX    TMP DP  RH WIND       PRES   REMARKS
TROUTDALE      LGT RAIN  42  36  79 E14G21    29.21R
THE DALLES     FOG       33  33 100 CALM      29.26R VSB 1/2
$$

ORZ029>031-041-044-049-050-061>064-502-503-505>511-210600-
EASTERN OREGON


CITY           SKY/WX    TMP DP  RH WIND       PRES   REMARKS
REDMOND        PTCLDY    28  24  85 S5        29.15R WCI  23
BEND           PTCLDY    28  27  93 CALM      29.15R
PRINEVILLE     PTCLDY    32  28  86 CALM      29.15R
KLAMATH FALLS  PTCLDY    31  28  89 S10       29.17R WCI  22
LAKEVIEW       MOCLDY    28  25  86 S10       29.20R WCI  19
HERMISTON      CLOUDY    34  33  96 SW7       29.22R FOG     WCI  28
PENDLETON      CLOUDY    39  30  70 E7        29.18R WCI  34
JOHN DAY       CLOUDY    36  29  75 E8        29.19R WCI  29
MEACHAM        CLOUDY    33  25  72 CALM      29.16R
LA GRANDE      CLOUDY    37  30  75 S16G23    29.21R WCI  28
BAKER CITY     CLOUDY    32  29  88 E14       29.22S WCI  22
BURNS          MOCLDY    20  19  96 NE6       29.20R WCI  12
ROME             N/A     29  26  89 S6        29.20R WCI  23
ONTARIO        CLOUDY    36  32  85 SE7       29.30R WCI  30
$$



USA.gov is the U.S. government's official web portal to all federal, state and local government web resources and services.